Temperature
16 16 17 17 17 17 17 17 17 17 17 17 17 17 17 17 17 17 17 17 17 17 17 17 16 16 16 16 16 16 16 16 16 16 16 15 15 15 16 15 15 16 15
17 16 17 17 17 17 17 17 17 17 17 17 17 17 17 17 17 17 17 17 16 16 16 16 16 16 16 16 16 16 16 16 16 16 15 15 15 15 15 15 15 15 15
16 16 16 16 17 17 17 17 17 17 17 17 17 17 17 17 17 17 16 16 16 16 16 16 16 16 16 16 16 16 16 16 15 15 15 15 15 15 15 15 15 15 15
16 16 16 16 16 16 17 17 17 17 17 17 17 17 17 17 16 16 16 16 16 16 16 16 16 16 16 16 16 16 15 15 15 15 15 15 15 15 15 15 15 15 15
16 16 16 16 16 16 16 16 16 16 16 16 16 16 16 16 16 16 16 16 16 16 16 16 16 16 15 15 15 15 15 15 15 15 15 15 15 15 15 15 15 15 15
16 16 16 16 16 16 16 16 16 16 16 16 16 16 16 16 16 16 16 15 15 15 15 15 15 15 15 15 15 15 15 15 15 15 15 15 15 15 15 15 15 15 15
15 15 15 16 16 16 16 16 16 16 16 16 16 16 15 15 15 15 15 15 15 15 15 15 15 15 15 15 15 14 14 14 15 15 14 14 14 14 15 15 15 14 14
15 15 15 15 15 16 16 16 15 15 15 15 15 15 15 15 15 15 15 14 14 14 14 14 14 14 14 14 14 14 14 14 14 14 14 14 14 14 14 14 14 14 14
15 15 15 15 15 15 15 15 15 15 15 15 15 15 15 15 15 15 14 14 14 14 14 14 14 14 14 14 14 14 14 14 14 14 14 14 14 14 14 14 14 14 14
15 15 15 15 15 15 15 15 15 15 15 15 14 14 14 14 14 14 14 14 14 14 14 14 14 14 14 13 13 13 13 14 14 14 14 14 14 14 14 14 14 14 13
14 14 15 15 15 15 15 14 14 14 14 14 14 14 14 14 14 14 14 13 13 13 13 13 13 13 13 13 13 13 13 13 13 13 13 13 13 13 13 13 13 13 13
14 14 14 14 14 14 14 14 14 14 14 14 14 14 13 13 13 13 13 13 13 13 13 13 13 13 13 13 13 13 13 13 13 13 13 13 13 13 13 13 13 13 13
14 14 14 14 14 14 14 14 14 14 13 13 13 13 13 13 13 13 13 13 12 12 12 12 12 12 12 12 12 12 12 12 12 12 12 12 13 13 13 13 12 12 12
14 14 14 14 14 13 13 13 13 13 13 13 13 13 13 13 13 12 12 12 12 12 12 12 12 12 12 12 12 12 12 12 12 12 12 12 12 12 12 12 12 12 12
14 14 13 13 13 13 13 13 13 13 13 13 13 12 12 12 12 12 12 12 12 12 12 12 12 11 11 11 11 11 11 11 11 11 11 11 11 11 11 11 11 11 11
14 13 13 13 13 13 13 13 13 12 12 12 12 12 12 12 12 12 12 12 11 11 11 11 11 11 11 11 11 11 11 11 11 11 11 11 11 11 11 11 11 11 11
13 13 13 13 13 13 13 12 12 12 12 12 12 12 12 12 11 11 11 11 11 11 11 11 11 10 10 10 10 10 10 10 10 10 10 10 10 10 10 10 10 10 10
13 13 13 13 12 12 12 12 12 12 12 12 12 11 11 11 11 11 11 11 11 11 10 10 10 10 10 10 10 10 10 10 10 10 10 10 10 10 10 10 10 10 10
13 13 13 12 12 12 12 12 12 12 11 11 11 11 11 11 11 11 10 10 10 10 10 10 10 9 10 9 9 9 9 9 9 9 9 9 9 9 9 9 9 9 9
13 13 12 12 12 12 11 11 11 11 11 11 11 11 10 10 10 10 10 10 10 10 10 9 9 9 9 9 9 9 9 9 9 9 9 9 9 9 9 9 9 9 9
13 12 12 12 12 11 11 11 11 11 11 11 10 10 10 10 10 10 10 10 9 9 9 9 9 9 8 8 8 8 8 8 8 8 8 8 8 8 8 8 8 8 8
13 12 12 12 11 11 11 11 11 11 11 10 10 10 10 10 10 9 9 9 9 9 9 9 8 8 8 8 7 7 7 8 8 8 8 8 8 8 8 8 8 8 8
12 12 12 11 11 11 11 10 10 10 10 10 10 10 9 9 9 9 9 9 9 9 9 8 8 8 8 7 7 7 6 7 7 7 7 8 8 7 8 8 7 7 8
12 11 11 11 11 10 10 10 10 10 10 10 10 9 9 9 9 9 9 9 9 9 8 8 8 8 7 7 7 7 6 6 6 6 7 7 7 7 7 7 7 7 7
11 11 11 10 10 10 10 10 9 9 9 9 9 9 9 9 8 8 8 8 8 8 8 8 8 7 7 7 7 7 6 6 6 6 6 6 6 7 7 6 7 7 7
11 10 10 10 10 9 9 9 9 9 9 9 9 8 8 8 8 8 8 8 8 8 8 8 7 7 7 7 7 7 6 6 6 6 6 6 6 6 6 6 6 6 6
Wind_Speed
5 7 13 13 13 13 13 13 13 13 13 12 12 12 11 11 10 10 9 9 9 8 8 8 8 7 7 7 7 7 6 6 6 6 6 6 6 7 7 6 6 6 6
8 10 14 14 14 13 13 13 13 12 12 12 12 11 11 10 10 9 8 8 8 7 7 7 7 6 7 6 6 6 5 5 5 5 5 5 6 5 6 6 5 5 6
10 11 14 14 14 13 13 12 12 12 11 11 11 10 10 9 9 9 8 8 7 6 6 6 6 5 5 5 5 5 5 5 5 5 4 3 4 4 5 5 4 4 4
11 12 13 14 14 13 13 12 12 11 11 10 10 10 9 9 8 7 7 7 7 6 6 5 5 4 4 4 4 3 3 4 4 4 3 2 2 3 4 4 3 3 3
10 11 12 14 13 13 13 12 11 11 10 10 9 9 8 8 7 7 6 6 6 6 5 5 4 4 3 3 3 3 2 3 4 3 3 2 2 3 3 3 3 3 3
8 10 12 14 13 13 12 11 11 10 9 9 8 8 7 7 6 6 6 5 5 4 4 4 4 3 3 3 3 2 2 2 3 3 3 2 1 1 2 2 2 2 2
9 9 12 13 12 12 11 11 10 9 9 8 8 7 6 6 6 5 5 5 4 3 3 3 3 3 3 3 3 3 2 1 2 2 2 1 0 1 1 2 2 2 2
10 8 11 12 12 11 11 10 9 9 8 8 7 7 6 5 5 5 4 4 4 3 3 2 2 3 3 3 3 3 3 2 1 1 0 1 2 2 3 3 3 3 3
9 8 8 9 10 11 10 9 9 8 8 7 7 6 6 5 5 4 4 3 3 3 3 2 2 3 3 3 4 4 4 3 2 0 1 1 3 3 4 4 4 4 3
7 7 6 8 8 8 8 8 8 7 7 7 6 6 6 6 5 4 4 3 3 3 3 3 3 3 3 4 5 5 5 4 2 1 2 3 4 4 4 4 4 4 4
6 5 5 6 6 7 7 7 7 7 6 6 5 6 5 5 4 4 4 3 3 3 3 3 3 3 3 4 5 5 5 3 3 2 2 4 5 5 5 5 5 5 5
7 5 5 5 5 5 5 5 5 5 5 4 4 4 4 4 3 3 3 3 3 3 3 3 4 4 4 3 5 5 3 3 3 3 3 5 6 6 7 7 6 6 6
7 6 5 5 5 4 3 4 3 3 3 3 4 4 4 4 3 3 3 2 2 3 3 3 3 3 2 2 2 3 3 3 2 3 5 6 7 7 8 8 8 7 7
7 6 5 5 5 4 4 3 3 2 2 2 2 4 4 3 2 1 1 1 1 1 1 2 1 2 2 2 2 2 2 2 3 3 5 7 8 8 9 9 9 9 9
7 6 5 5 5 4 3 2 2 2 2 2 2 3 4 3 2 1 1 1 0 0 0 0 1 1 1 2 2 2 2 3 4 4 5 7 8 9 10 10 10 10 11
8 7 6 6 5 5 3 2 2 2 2 2 2 3 4 3 2 2 1 0 0 1 1 1 1 1 2 2 3 3 3 3 3 5 5 6 8 9 10 11 11 11 11
8 7 6 6 5 5 4 3 2 2 3 2 2 3 3 3 3 2 1 1 1 1 1 1 1 1 2 2 3 3 3 3 3 4 5 5 6 9 10 11 11 12 12
7 7 6 6 5 5 4 3 2 2 2 2 2 2 3 3 3 3 2 2 2 1 0 1 1 1 2 2 3 4 3 3 4 4 4 5 5 6 8 10 11 13 13
9 8 7 5 6 5 3 2 2 2 2 1 2 2 2 3 3 3 2 2 2 1 1 1 1 1 2 3 3 3 3 4 4 4 4 5 5 6 6 8 11 12 12
8 7 7 6 5 4 3 2 1 1 1 1 1 2 2 2 2 2 2 2 2 1 1 1 2 2 2 3 4 4 4 5 4 4 4 4 4 6 6 6 7 8 11
7 7 7 6 5 4 3 3 2 2 2 2 2 2 2 2 2 2 2 2 2 2 2 2 1 2 2 1 2 4 4 4 4 4 3 3 4 5 5 5 5 5 6
8 8 7 7 6 5 4 4 3 3 2 3 2 2 2 2 2 2 2 2 2 2 2 2 1 1 2 1 0 2 3 4 3 3 3 3 4 3 4 5 4 4 5
7 7 7 7 6 5 4 2 1 1 1 0 1 2 2 2 3 2 3 2 2 2 3 3 3 2 2 2 1 1 1 3 4 3 3 3 3 3 3 4 4 5 5
7 6 6 6 6 5 5 4 4 3 2 2 2 2 2 2 2 3 3 3 3 2 3 3 3 2 2 2 2 2 3 3 2 3 3 2 3 4 4 4 4 5 5
6 6 5 5 5 5 5 5 5 3 2 1 1 2 2 2 2 3 3 2 3 3 3 3 3 3 3 3 2 2 2 2 3 3 5 5 4 3 3 3 3 3 4
4 4 4 5 4 4 5 4 5 4 3 1 1 2 2 2 2 3 3 2 3 3 4 4 4 4 4 4 3 3 2 2 3 2 3 5 5 4 4 3 3 2 3
Wind_Direction
161 154 134 127 123 118 114 111 106 103 100 96 93 91 90 89 90 90 89 89 86 84 82 79 77 74 75 76 79 82 85 86 88 90 97 109 114 113 111 109 107 103 108
152 144 134 128 124 120 117 113 109 105 102 100 97 94 91 88 87 88 87 86 85 83 81 79 75 72 74 76 74 76 80 82 82 86 93 102 111 117 120 119 118 115 116
138 136 133 129 126 122 118 114 112 108 105 102 98 95 93 90 88 85 82 80 79 78 78 78 75 72 70 70 72 72 73 80 78 79 90 96 113 125 130 130 130 131 129
133 132 133 130 126 124 120 117 114 110 106 103 99 95 94 91 87 85 83 79 74 72 72 71 66 64 67 61 56 61 64 70 70 71 86 96 126 142 140 136 134 138 144
124 130 132 129 126 124 120 117 114 111 107 104 101 98 96 94 89 82 80 78 74 70 67 65 59 52 53 49 44 47 48 71 64 65 70 77 113 150 153 142 139 143 151
124 126 131 130 127 124 119 116 114 113 110 107 103 100 98 96 91 83 76 71 69 67 63 59 53 45 39 25 25 29 32 56 64 72 65 70 97 167 180 169 168 158 160
132 127 130 129 125 121 118 116 114 112 111 110 106 103 102 97 90 85 80 73 65 65 62 54 43 32 20 5 12 17 18 48 93 86 75 44 267 244 235 207 192 189 193
131 118 122 125 123 122 119 116 116 115 111 109 106 101 96 94 91 87 79 70 63 57 49 39 29 17 7 3 7 14 21 20 54 116 65 245 245 251 262 246 231 221 213
121 115 111 118 120 122 122 120 118 115 113 110 106 99 91 91 89 84 77 67 63 49 35 23 15 9 2 1 5 4 6 5 35 224 254 261 251 253 263 258 248 234 228
118 119 113 112 114 115 121 123 119 117 114 111 106 98 92 89 83 79 73 63 57 48 36 23 11 359 1 1 0 0 2 3 6 306 252 254 262 255 258 261 252 241 238
127 129 122 115 111 112 119 123 120 120 118 113 109 103 92 85 86 79 68 60 53 45 34 18 8 4 359 357 350 347 357 9 351 307 261 258 265 263 259 261 258 249 245
151 150 141 131 122 114 120 119 114 116 115 112 113 111 103 97 90 78 68 54 41 34 27 15 5 8 5 357 343 341 349 343 340 310 284 275 266 267 262 262 260 254 250
159 154 153 145 131 119 111 118 110 109 114 117 122 121 116 104 89 72 65 48 32 27 30 10 12 12 1 348 339 334 332 331 323 304 291 280 273 271 269 265 263 261 257
157 161 158 146 135 131 125 127 129 119 125 132 146 139 126 110 100 89 81 59 50 36 29 17 15 1 339 320 309 309 316 315 304 294 288 286 279 277 275 270 267 267 263
161 165 164 154 147 142 133 140 139 149 158 163 161 157 148 139 154 135 109 88 65 42 75 11 4 336 311 303 299 298 285 288 290 283 287 285 284 280 279 277 273 269 267
167 166 164 159 154 144 146 157 161 158 162 158 168 179 167 158 157 157 165 196 276 256 247 242 268 296 294 290 289 279 271 276 275 274 276 282 285 283 281 282 279 271 269
172 166 167 165 156 155 159 166 158 164 157 157 175 179 177 173 167 164 182 215 240 257 280 316 317 314 304 307 300 289 278 270 266 265 268 271 275 281 282 283 285 279 272
166 166 171 166 161 166 167 168 163 163 159 176 187 189 192 190 179 165 181 216 224 202 162 269 278 293 294 294 291 286 281 269 265 266 263 262 266 271 277 282 284 284 277
170 168 167 161 163 169 166 160 162 162 173 185 189 194 206 195 180 171 189 211 194 169 217 260 288 271 284 295 288 281 278 275 271 275 269 264 262 264 267 277 282 284 285
167 166 166 163 165 162 150 136 137 153 204 198 195 199 204 198 192 179 196 213 186 199 233 238 260 276 264 276 295 298 287 278 271 265 265 264 264 267 267 273 277 282 287
161 162 166 163 168 157 154 161 174 202 222 223 222 214 208 202 199 183 210 215 207 211 227 232 246 273 280 292 317 314 302 282 269 268 265 266 268 267 261 263 268 270 281
169 170 169 170 173 174 178 181 188 192 215 216 227 241 221 205 204 198 204 220 220 219 234 240 240 253 279 288 280 326 318 317 306 283 278 274 279 277 277 276 274 274 277
170 175 177 177 177 177 168 147 114 80 42 334 248 243 244 224 218 212 216 218 224 211 223 234 229 220 247 269 220 203 261 271 308 300 291 290 292 294 296 288 279 274 276
183 177 174 175 172 173 163 163 167 179 199 223 225 235 257 244 235 227 223 221 220 221 229 236 236 237 218 247 267 245 239 243 267 301 312 309 307 300 292 296 291 282 278
171 168 171 169 173 171 170 175 180 193 206 227 232 232 244 256 251 246 238 232 229 229 232 235 240 242 227 229 239 256 265 270 246 260 295 312 316 303 295 287 295 290 288
152 156 160 163 175 177 175 178 185 189 190 184 229 233 248 259 260 261 259 249 239 234 233 234 233 235 238 238 237 235 240 250 260 253 278 301 307 311 307 297 292 300 301
Height
1511 1513 1515 1517 1518 1519 1520 1521 1522 1523 1524 1525 1525 1526 1526 1526 1527 1527 1527 1528 1528 1528 1528 1528 1528 1528 1528 1528 1528 1528 1528 1528 1528 1528 1528 1528 1528 1528 1528 1528 1528 1528 1528
1510 1513 1515 1516 1518 1519 1520 1521 1522 1523 1524 1524 1525 1525 1526 1526 1527 1527 1527 1527 1527 1527 1527 1527 1527 1527 1527 1527 1527 1527 1528 1528 1528 1528 1528 1528 1528 1528 1528 1528 1528 1527 1527
1510 1512 1514 1516 1517 1519 1520 1521 1522 1523 1524 1524 1525 1525 1526 1526 1526 1526 1526 1527 1527 1527 1527 1527 1527 1527 1527 1527 1527 1527 1527 1527 1527 1527 1527 1527 1527 1527 1527 1527 1527 1527 1527
1510 1512 1513 1515 1517 1518 1519 1521 1522 1522 1523 1524 1524 1525 1525 1525 1525 1526 1526 1526 1526 1526 1526 1526 1526 1526 1525 1525 1526 1526 1526 1526 1526 1526 1526 1526 1526 1526 1526 1526 1526 1526 1526
1510 1512 1513 1515 1517 1518 1519 1520 1521 1522 1523 1523 1524 1524 1524 1524 1524 1524 1525 1524 1524 1524 1524 1524 1524 1524 1524 1524 1524 1524 1524 1524 1525 1525 1525 1525 1525 1525 1525 1525 1525 1525 1525
1510 1512 1513 1515 1516 1517 1519 1520 1520 1521 1522 1522 1522 1523 1523 1523 1523 1523 1523 1523 1523 1523 1523 1523 1523 1523 1523 1523 1523 1523 1523 1523 1523 1523 1524 1524 1524 1524 1524 1523 1523 1523 1523
1509 1511 1513 1515 1516 1517 1518 1519 1520 1520 1521 1521 1521 1522 1522 1522 1522 1522 1522 1521 1521 1521 1521 1521 1521 1521 1521 1521 1521 1521 1521 1521 1521 1521 1522 1522 1522 1522 1522 1522 1521 1521 1521
1509 1511 1513 1514 1515 1516 1517 1518 1519 1519 1519 1520 1520 1520 1520 1520 1520 1520 1520 1520 1520 1520 1519 1519 1519 1519 1519 1519 1519 1519 1519 1519 1519 1519 1519 1519 1520 1520 1520 1520 1519 1519 1519
1509 1510 1512 1513 1514 1515 1516 1517 1517 1518 1518 1518 1519 1519 1519 1519 1518 1518 1518 1518 1518 1518 1518 1518 1517 1517 1517 1517 1517 1517 1517 1517 1517 1517 1517 1517 1517 1517 1517 1517 1517 1517 1517
1509 1510 1511 1512 1513 1514 1515 1516 1516 1517 1517 1517 1517 1517 1517 1517 1517 1517 1516 1516 1516 1516 1516 1515 1515 1515 1515 1515 1515 1515 1514 1514 1514 1514 1514 1514 1515 1514 1514 1514 1514 1514 1514
1508 1509 1510 1511 1512 1513 1514 1514 1515 1515 1515 1516 1516 1516 1516 1516 1515 1515 1515 1515 1514 1514 1514 1513 1513 1513 1512 1512 1512 1512 1512 1511 1511 1511 1511 1511 1512 1511 1511 1511 1511 1511 1511
1506 1507 1509 1510 1511 1512 1512 1513 1513 1514 1514 1514 1514 1514 1514 1514 1514 1514 1513 1513 1513 1512 1512 1511 1511 1511 1510 1510 1509 1509 1509 1509 1508 1508 1508 1508 1508 1508 1508 1508 1508 1508 1508
1504 1506 1507 1508 1509 1510 1510 1511 1511 1512 1512 1512 1513 1512 1512 1512 1512 1512 1512 1511 1511 1510 1510 1509 1509 1508 1508 1507 1507 1506 1506 1506 1505 1505 1505 1505 1505 1505 1505 1505 1505 1505 1505
1503 1504 1505 1506 1507 1508 1509 1509 1510 1510 1510 1511 1511 1511 1511 1510 1510 1510 1510 1509 1509 1508 1508 1507 1506 1506 1505 1505 1504 1503 1503 1503 1502 1502 1501 1502 1502 1501 1501 1501 1501 1501 1501
1501 1502 1503 1504 1505 1506 1507 1507 1508 1508 1508 1509 1509 1509 1509 1509 1508 1508 1508 1507 1507 1506 1505 1505 1504 1503 1503 1502 1501 1500 1500 1500 1499 1499 1498 1498 1498 1498 1498 1498 1498 1497 1498
1498 1500 1501 1502 1503 1504 1505 1505 1506 1506 1506 1507 1507 1507 1507 1507 1506 1506 1506 1505 1505 1504 1503 1503 1502 1501 1500 1499 1498 1498 1497 1497 1496 1496 1495 1495 1494 1494 1494 1494 1494 1493 1494
1496 1498 1499 1500 1501 1502 1503 1503 1504 1504 1504 1505 1505 1505 1505 1505 1504 1504 1504 1503 1503 1502 1501 1500 1499 1498 1497 1496 1495 1494 1494 1493 1493 1492 1492 1491 1490 1490 1490 1490 1489 1489 1489
1493 1495 1497 1498 1499 1500 1501 1501 1502 1502 1502 1503 1503 1503 1503 1503 1502 1502 1502 1501 1500 1500 1499 1498 1497 1496 1495 1493 1492 1491 1491 1490 1489 1489 1488 1487 1487 1486 1486 1486 1485 1485 1485
1491 1492 1494 1495 1496 1497 1498 1499 1500 1500 1500 1500 1500 1500 1500 1500 1500 1500 1499 1498 1498 1497 1496 1495 1494 1493 1492 1491 1489 1488 1487 1487 1486 1485 1484 1484 1483 1482 1482 1482 1481 1481 1480
1488 1489 1491 1492 1494 1495 1496 1497 1497 1498 1498 1498 1498 1498 1498 1498 1497 1497 1496 1496 1495 1494 1494 1493 1492 1491 1490 1489 1487 1485 1484 1483 1482 1481 1481 1480 1480 1479 1478 1478 1477 1477 1476
1484 1486 1487 1489 1490 1491 1492 1493 1493 1494 1495 1495 1495 1495 1495 1495 1495 1494 1494 1493 1492 1492 1491 1490 1489 1488 1487 1486 1484 1482 1481 1480 1479 1478 1477 1477 1476 1475 1475 1474 1473 1473 1472
1480 1482 1483 1485 1487 1488 1489 1490 1491 1492 1492 1492 1493 1492 1492 1492 1492 1491 1491 1490 1489 1489 1488 1487 1486 1485 1484 1484 1483 1480 1478 1477 1475 1475 1474 1473 1472 1472 1471 1470 1469 1468 1467
1476 1478 1479 1481 1483 1485 1486 1487 1488 1489 1489 1489 1489 1489 1489 1489 1489 1488 1488 1487 1486 1486 1485 1484 1484 1483 1482 1482 1481 1481 1479 1475 1473 1471 1471 1470 1470 1468 1467 1466 1465 1464 1463
1472 1474 1476 1478 1480 1482 1483 1484 1484 1484 1484 1485 1485 1486 1486 1486 1486 1485 1485 1484 1484 1483 1482 1482 1481 1480 1480 1479 1479 1478 1478 1476 1474 1470 1468 1468 1467 1465 1464 1463 1462 1461 1460
1469 1471 1473 1475 1477 1478 1479 1480 1481 1482 1482 1483 1483 1483 1483 1483 1483 1482 1482 1481 1480 1480 1479 1479 1478 1478 1477 1476 1476 1475 1474 1473 1472 1470 1466 1464 1463 1462 1461 1460 1458 1457 1456
1466 1468 1470 1472 1473 1475 1476 1477 1478 1479 1479 1480 1480 1480 1479 1479 1479 1479 1479 1478 1477 1477 1476 1476 1475 1474 1474 1473 1473 1472 1471 1470 1469 1467 1465 1462 1460 1459 1458 1456 1455 1454 1453